SL-14 R/B

Satellite information

Favourite Embed

Satellite Type and Status

ROCKET BODYIN ORBIT

Key statistics

Satellite SL-14 R/B at a glance.

Uptime

13510

Days in orbit

Revolutions

≈ 14.8

Per day

Orbit

LEO

Low Earth Orbit

Inclination

82.5

Latest

Satellite identification and parameters

Extended collection of information and parameters for SL-14 R/B.

Object identification

Identified? True

Debris? False

Object name: SL-14 R/B

International designator: 1988-056B

Object number (NORAD): 19275

Object ID (CCSDS): 19275

Country: COMMONWEALTH OF INDEPENDENT STATES (CIS)

Current information (Y/N): Y

RCS size: LARGE

Orbital parameters

Period: 96.984 minutes

Inclination: 82.5154 deg

SMA: 6992.401 km

Apoapsis: 626.621 km

Periapsis: 601.911 km

RAAN: 101.2264 deg

Eccentricy: 0.0017669

Argument of periapsis: 251.6012 deg

Mean anomaly: 108.3283 deg

Mean motion: 14.84783939 rev/day

Mean motion (dot): 0.0000032 rev/day2

B* drag term: 0.00003483 1/REarth

Two-line elements (TLE)

Creation date: July 1, 2025, 2:15 a.m.

Reference frame: TEME

Reference center: EARTH

Epoch: June 30, 2025, 8:05 p.m. UTC

TLE line 0: 0 SL-14 R/B

TLE line 1: 1 19275U 88056B 25181.83702585 .00000320 00000-0 34830-4 0 9993

TLE line 2: 2 19275 82.5154 101.2264 0017669 251.6012 108.3283 14.84783939977298

Live tracking on map

Real-time ground track for satellite SL-14 R/B.

In-orbit conjunctions

A list of the most updated potential collisions computed for object SL-14 R/B.

Target Orbit TCA Probability of collision Miss distance Type
COSMOS 2251 DEB LEO 2025-05-23 17:08:01 0.0001144826 154.0 (m) DEBRIS
FENGYUN 1C DEB SSO 2025-03-25 07:45:15 0.0001481489 708.0 (m) DEBRIS
CZ-6A DEB SSO 2025-01-24 10:07:41 0.0001188187 243.0 (m) DEBRIS
ORBCOMM FM 1 LEO 2024-11-03 12:14:27 0.0001560896 53.0 (m) PAYLOAD
FENGYUN 1C DEB SSO 2024-07-16 14:43:50 0.0002218309 238.0 (m) DEBRIS

Associated space launch

Ocean observation satellite

SL-14 R/B was lifted into orbit during the mission ‘Tsiklon-3 | Okean-O1 3’, on board a Tsiklon-3 space rocket.

The launch took place on July 5, 1988, 9:45 a.m. from 32/1.

For more information about the launch, click the button.

Launch to space Tsiklon-3 | Okean-O1 3
Tsiklon-3 | Okean-O1 3

Agency: N/A

Status: Launch Successful

Launch date: July 5, 1988, 9:45 a.m. UTC

Rocket: Tsiklon-3

Launch pad: 32/1

Location: Plesetsk Cosmodrome, Russian Federation

...

Latest news about this satellite

There are no fresh news available about this satellite. Check back as we update our databases every day.


Newsletter sign-up

Weekly statistics, charts and insights to help you stay on top of the space industry.